Terug naar catalogus

STARLINK-5869

ActiefCommunicatieVLEO
NORAD 57061·PAYLOAD·🇺🇸 United States

Gelanceerd Jun 22, 2023 vanaf Vandenberg Space Force Base

Loading…

Volgende Passages (komende 24 uur)

TLE

VersSource: CelesTrak SupGP

Epoch: Sep 14, 2026, 20:43 UTC

1 57061C 23088P   26257.86368056 -.00057309  00000+0 -20760-2 0  2573
2 57061  42.9995 125.5591 0001292 254.3713 185.0649 15.27602093    15

Volg STARLINK-5869 in realtime met AllMySat

Download on the App Store